QPF
0.00 0.00 0.00 0.00 0.00 0.00 0.00 0.00 0.00 0.00 0.00 0.00 0.00 0.00 0.00 0.00 0.00 0.01 0.01 0.01 0.01 0.01 0.01 0.02 0.02 0.02 0.02 0.02 0.02 0.02 0.01 0.01 0.00 0.00 0.00 0.00 0.00 0.00 0.00 0.00 0.00 0.00 0.01
0.00 0.00 0.00 0.00 0.00 0.00 0.00 0.00 0.00 0.00 0.00 0.00 0.00 0.00 0.00 0.00 0.00 0.00 0.01 0.01 0.01 0.01 0.01 0.01 0.01 0.01 0.01 0.01 0.01 0.01 0.01 0.01 0.00 0.00 0.00 0.00 0.00 0.00 0.00 0.00 0.00 0.00 0.01
0.00 0.00 0.00 0.00 0.00 0.00 0.00 0.00 0.00 0.00 0.00 0.00 0.00 0.00 0.00 0.00 0.00 0.00 0.00 0.00 0.01 0.01 0.01 0.01 0.01 0.01 0.01 0.01 0.01 0.01 0.01 0.00 0.00 0.00 0.00 0.00 0.00 0.00 0.00 0.01 0.00 0.00 0.00
0.00 0.00 0.00 0.00 0.00 0.00 0.00 0.00 0.00 0.00 0.00 0.00 0.00 0.00 0.00 0.00 0.00 0.00 0.00 0.00 0.00 0.00 0.00 0.00 0.00 0.00 0.00 0.00 0.00 0.01 0.00 0.00 0.00 0.00 0.00 0.00 0.00 0.00 0.01 0.01 0.01 0.01 0.00
0.00 0.00 0.00 0.00 0.00 0.00 0.00 0.00 0.00 0.00 0.00 0.00 0.00 0.00 0.00 0.00 0.00 0.00 0.00 0.00 0.00 0.00 0.00 0.00 0.00 0.00 0.00 0.00 0.00 0.00 0.00 0.00 0.00 0.00 0.00 0.00 0.00 0.00 0.01 0.01 0.01 0.01 0.01
0.00 0.00 0.00 0.00 0.00 0.00 0.00 0.00 0.00 0.00 0.00 0.00 0.00 0.00 0.00 0.00 0.00 0.00 0.00 0.00 0.00 0.00 0.00 0.00 0.00 0.00 0.00 0.00 0.00 0.00 0.00 0.00 0.00 0.00 0.00 0.00 0.00 0.00 0.01 0.01 0.01 0.01 0.01
0.00 0.00 0.00 0.00 0.00 0.00 0.00 0.00 0.00 0.00 0.00 0.00 0.00 0.00 0.00 0.00 0.00 0.00 0.00 0.00 0.00 0.00 0.00 0.00 0.00 0.00 0.00 0.00 0.00 0.00 0.00 0.00 0.00 0.00 0.00 0.00 0.00 0.00 0.00 0.01 0.01 0.01 0.01
0.00 0.00 0.00 0.00 0.00 0.00 0.00 0.00 0.00 0.00 0.00 0.00 0.00 0.00 0.00 0.00 0.00 0.00 0.00 0.00 0.00 0.00 0.00 0.00 0.00 0.00 0.00 0.00 0.00 0.00 0.00 0.00 0.00 0.00 0.00 0.00 0.00 0.00 0.00 0.01 0.01 0.01 0.01
0.00 0.00 0.00 0.00 0.00 0.00 0.00 0.00 0.00 0.00 0.00 0.00 0.00 0.00 0.00 0.00 0.00 0.00 0.00 0.00 0.00 0.00 0.00 0.00 0.00 0.00 0.00 0.00 0.00 0.00 0.00 0.00 0.00 0.00 0.00 0.00 0.00 0.00 0.00 0.01 0.01 0.01 0.01
0.00 0.00 0.00 0.00 0.00 0.00 0.00 0.00 0.00 0.00 0.00 0.00 0.00 0.00 0.00 0.00 0.00 0.00 0.00 0.00 0.00 0.00 0.00 0.00 0.00 0.00 0.00 0.00 0.00 0.00 0.00 0.00 0.00 0.00 0.00 0.00 0.00 0.00 0.00 0.00 0.00 0.01 0.01
0.00 0.00 0.00 0.00 0.00 0.00 0.00 0.00 0.00 0.00 0.00 0.00 0.00 0.00 0.00 0.00 0.00 0.00 0.00 0.00 0.00 0.00 0.00 0.00 0.00 0.00 0.00 0.00 0.00 0.00 0.00 0.00 0.00 0.00 0.00 0.00 0.00 0.00 0.00 0.00 0.00 0.00 0.01
0.00 0.00 0.00 0.00 0.00 0.00 0.00 0.00 0.00 0.00 0.00 0.00 0.00 0.00 0.00 0.00 0.00 0.00 0.00 0.00 0.00 0.00 0.00 0.00 0.00 0.00 0.00 0.00 0.00 0.00 0.00 0.00 0.00 0.00 0.00 0.00 0.00 0.00 0.00 0.00 0.00 0.01 0.01
0.00 0.00 0.00 0.00 0.00 0.00 0.00 0.00 0.00 0.00 0.00 0.00 0.00 0.00 0.00 0.00 0.00 0.00 0.00 0.00 0.00 0.00 0.00 0.00 0.00 0.00 0.00 0.00 0.00 0.00 0.00 0.00 0.00 0.00 0.00 0.00 0.00 0.00 0.00 0.00 0.00 0.01 0.01
0.00 0.00 0.00 0.00 0.00 0.00 0.00 0.00 0.00 0.00 0.00 0.00 0.00 0.00 0.00 0.00 0.00 0.00 0.00 0.00 0.00 0.00 0.00 0.00 0.00 0.00 0.00 0.00 0.00 0.00 0.00 0.00 0.00 0.00 0.00 0.00 0.00 0.00 0.00 0.00 0.00 0.01 0.01
0.00 0.00 0.00 0.00 0.00 0.00 0.00 0.00 0.00 0.00 0.00 0.00 0.00 0.00 0.00 0.00 0.00 0.00 0.00 0.00 0.00 0.00 0.00 0.00 0.00 0.00 0.00 0.00 0.00 0.00 0.00 0.00 0.00 0.00 0.00 0.00 0.00 0.00 0.00 0.00 0.00 0.00 0.01
0.00 0.00 0.00 0.00 0.00 0.00 0.00 0.00 0.00 0.00 0.00 0.00 0.00 0.00 0.00 0.00 0.00 0.00 0.00 0.00 0.00 0.00 0.00 0.00 0.00 0.00 0.00 0.00 0.00 0.00 0.00 0.00 0.00 0.00 0.00 0.00 0.00 0.00 0.00 0.00 0.00 0.00 0.01
0.00 0.00 0.00 0.00 0.00 0.00 0.00 0.00 0.00 0.00 0.00 0.00 0.00 0.00 0.00 0.00 0.00 0.00 0.00 0.00 0.00 0.00 0.00 0.00 0.00 0.00 0.00 0.00 0.00 0.00 0.00 0.00 0.00 0.00 0.00 0.00 0.00 0.00 0.00 0.00 0.00 0.00 0.01
0.00 0.00 0.00 0.00 0.00 0.00 0.00 0.00 0.00 0.00 0.00 0.00 0.00 0.00 0.00 0.00 0.00 0.00 0.00 0.00 0.00 0.00 0.00 0.00 0.00 0.00 0.00 0.00 0.00 0.00 0.00 0.00 0.00 0.00 0.00 0.00 0.00 0.00 0.00 0.00 0.00 0.00 0.00
0.00 0.00 0.00 0.00 0.00 0.00 0.00 0.00 0.00 0.00 0.00 0.00 0.00 0.00 0.00 0.00 0.00 0.00 0.00 0.00 0.00 0.00 0.00 0.00 0.00 0.00 0.00 0.00 0.00 0.00 0.00 0.00 0.00 0.00 0.00 0.00 0.00 0.00 0.00 0.00 0.00 0.00 0.00
0.00 0.00 0.00 0.00 0.00 0.00 0.00 0.00 0.00 0.00 0.00 0.00 0.00 0.00 0.00 0.00 0.00 0.00 0.00 0.00 0.00 0.00 0.00 0.00 0.00 0.00 0.00 0.00 0.00 0.00 0.00 0.00 0.00 0.00 0.00 0.00 0.00 0.00 0.00 0.00 0.00 0.00 0.00
0.00 0.00 0.00 0.00 0.00 0.00 0.00 0.00 0.00 0.00 0.00 0.00 0.00 0.00 0.00 0.00 0.00 0.00 0.00 0.00 0.00 0.00 0.00 0.00 0.00 0.00 0.00 0.00 0.00 0.00 0.00 0.00 0.00 0.00 0.00 0.00 0.00 0.00 0.00 0.00 0.00 0.00 0.00
0.00 0.00 0.00 0.00 0.00 0.00 0.00 0.00 0.00 0.00 0.00 0.00 0.00 0.00 0.00 0.00 0.00 0.00 0.00 0.00 0.00 0.00 0.00 0.00 0.00 0.00 0.00 0.00 0.00 0.00 0.00 0.00 0.00 0.00 0.00 0.00 0.00 0.00 0.00 0.00 0.00 0.00 0.00
0.00 0.00 0.00 0.00 0.00 0.00 0.00 0.00 0.00 0.00 0.00 0.00 0.00 0.00 0.00 0.00 0.00 0.00 0.00 0.00 0.00 0.00 0.00 0.00 0.00 0.00 0.00 0.00 0.00 0.00 0.00 0.00 0.00 0.00 0.00 0.00 0.00 0.00 0.00 0.00 0.00 0.00 0.00
0.00 0.00 0.00 0.00 0.00 0.00 0.00 0.00 0.00 0.00 0.00 0.00 0.00 0.00 0.00 0.00 0.00 0.00 0.00 0.00 0.00 0.00 0.00 0.00 0.00 0.00 0.00 0.00 0.00 0.00 0.00 0.00 0.00 0.00 0.00 0.00 0.00 0.00 0.00 0.00 0.00 0.00 0.00
0.00 0.00 0.00 0.00 0.00 0.00 0.00 0.00 0.00 0.00 0.00 0.00 0.00 0.00 0.00 0.00 0.00 0.00 0.00 0.00 0.00 0.00 0.00 0.00 0.00 0.00 0.00 0.00 0.00 0.00 0.00 0.00 0.00 0.00 0.00 0.00 0.00 0.00 0.00 0.00 0.00 0.00 0.00
0.00 0.00 0.00 0.00 0.00 0.00 0.00 0.00 0.00 0.00 0.00 0.00 0.00 0.00 0.00 0.00 0.00 0.00 0.00 0.00 0.00 0.00 0.00 0.00 0.00 0.00 0.00 0.00 0.00 0.00 0.00 0.00 0.00 0.00 0.00 0.00 0.00 0.00 0.00 0.00 0.00 0.00 0.00
MSLP
1025.22 1025.57 1025.87 1026.11 1026.34 1026.55 1026.74 1026.91 1027.02 1027.07 1027.04 1026.93 1026.78 1026.62 1026.48 1026.39 1026.37 1026.40 1026.44 1026.46 1026.43 1026.32 1026.15 1025.94 1025.73 1025.56 1025.47 1025.47 1025.54 1025.62 1025.67 1025.63 1025.47 1025.18 1024.77 1024.28 1023.78 1023.29 1022.87 1022.51 1022.21 1021.95 1021.68
1024.92 1025.28 1025.60 1025.89 1026.18 1026.46 1026.72 1026.95 1027.12 1027.20 1027.19 1027.11 1026.98 1026.84 1026.74 1026.69 1026.70 1026.76 1026.83 1026.87 1026.86 1026.76 1026.60 1026.40 1026.20 1026.04 1025.96 1025.95 1025.99 1026.05 1026.07 1026.00 1025.82 1025.53 1025.13 1024.68 1024.22 1023.77 1023.38 1023.05 1022.76 1022.49 1022.21
1024.76 1025.11 1025.43 1025.75 1026.07 1026.39 1026.70 1026.97 1027.18 1027.31 1027.34 1027.30 1027.22 1027.12 1027.05 1027.04 1027.07 1027.14 1027.21 1027.24 1027.22 1027.12 1026.96 1026.77 1026.59 1026.44 1026.36 1026.34 1026.36 1026.38 1026.37 1026.28 1026.09 1025.80 1025.43 1025.02 1024.61 1024.22 1023.87 1023.57 1023.29 1023.01 1022.73
1024.74 1025.07 1025.38 1025.70 1026.02 1026.36 1026.70 1027.00 1027.25 1027.42 1027.50 1027.51 1027.48 1027.43 1027.40 1027.40 1027.44 1027.50 1027.54 1027.56 1027.51 1027.40 1027.24 1027.06 1026.90 1026.77 1026.70 1026.67 1026.68 1026.68 1026.64 1026.52 1026.32 1026.05 1025.71 1025.34 1024.98 1024.64 1024.33 1024.04 1023.77 1023.50 1023.20
1024.84 1025.15 1025.44 1025.73 1026.05 1026.38 1026.72 1027.04 1027.31 1027.52 1027.65 1027.72 1027.74 1027.74 1027.74 1027.76 1027.80 1027.83 1027.85 1027.83 1027.75 1027.63 1027.48 1027.32 1027.17 1027.07 1027.02 1027.00 1027.00 1026.98 1026.91 1026.78 1026.58 1026.31 1026.00 1025.66 1025.33 1025.02 1024.73 1024.46 1024.19 1023.91 1023.61
1024.99 1025.28 1025.55 1025.82 1026.12 1026.44 1026.77 1027.09 1027.38 1027.62 1027.79 1027.91 1027.98 1028.03 1028.07 1028.11 1028.14 1028.16 1028.15 1028.09 1028.00 1027.87 1027.72 1027.58 1027.47 1027.39 1027.36 1027.35 1027.35 1027.31 1027.23 1027.09 1026.88 1026.61 1026.31 1025.99 1025.68 1025.38 1025.09 1024.81 1024.53 1024.24 1023.94
1025.12 1025.40 1025.65 1025.90 1026.18 1026.48 1026.81 1027.13 1027.43 1027.69 1027.91 1028.08 1028.20 1028.30 1028.38 1028.45 1028.48 1028.49 1028.46 1028.39 1028.28 1028.15 1028.02 1027.90 1027.81 1027.77 1027.75 1027.75 1027.73 1027.69 1027.59 1027.43 1027.21 1026.95 1026.65 1026.33 1026.02 1025.71 1025.40 1025.10 1024.79 1024.49 1024.18
1025.16 1025.43 1025.67 1025.92 1026.19 1026.49 1026.81 1027.13 1027.45 1027.74 1027.99 1028.21 1028.39 1028.54 1028.67 1028.76 1028.82 1028.84 1028.81 1028.74 1028.64 1028.51 1028.39 1028.29 1028.23 1028.19 1028.18 1028.17 1028.14 1028.07 1027.96 1027.78 1027.56 1027.29 1026.99 1026.68 1026.35 1026.02 1025.68 1025.34 1025.00 1024.67 1024.35
1025.06 1025.32 1025.57 1025.83 1026.11 1026.42 1026.75 1027.09 1027.43 1027.75 1028.04 1028.30 1028.53 1028.73 1028.90 1029.04 1029.13 1029.18 1029.17 1029.12 1029.03 1028.92 1028.81 1028.72 1028.66 1028.62 1028.59 1028.56 1028.51 1028.42 1028.28 1028.10 1027.88 1027.61 1027.32 1027.01 1026.68 1026.32 1025.95 1025.57 1025.20 1024.83 1024.49
1024.79 1025.06 1025.32 1025.61 1025.92 1026.26 1026.63 1027.00 1027.36 1027.71 1028.03 1028.33 1028.61 1028.85 1029.07 1029.25 1029.39 1029.47 1029.49 1029.47 1029.40 1029.31 1029.22 1029.13 1029.06 1029.00 1028.95 1028.88 1028.79 1028.68 1028.52 1028.34 1028.13 1027.89 1027.62 1027.33 1027.00 1026.64 1026.24 1025.83 1025.41 1025.00 1024.64
1024.36 1024.65 1024.95 1025.28 1025.64 1026.03 1026.44 1026.84 1027.24 1027.62 1027.97 1028.30 1028.60 1028.88 1029.14 1029.36 1029.53 1029.65 1029.71 1029.72 1029.68 1029.61 1029.53 1029.44 1029.36 1029.28 1029.19 1029.08 1028.96 1028.82 1028.66 1028.49 1028.30 1028.10 1027.88 1027.62 1027.32 1026.97 1026.56 1026.12 1025.66 1025.21 1024.80
1023.80 1024.12 1024.47 1024.85 1025.28 1025.72 1026.18 1026.63 1027.06 1027.46 1027.83 1028.17 1028.49 1028.79 1029.07 1029.31 1029.51 1029.66 1029.76 1029.80 1029.79 1029.75 1029.68 1029.60 1029.51 1029.40 1029.28 1029.15 1029.01 1028.85 1028.70 1028.55 1028.40 1028.25 1028.08 1027.88 1027.63 1027.30 1026.90 1026.44 1025.95 1025.46 1025.00
1023.15 1023.52 1023.92 1024.37 1024.86 1025.36 1025.87 1026.36 1026.81 1027.22 1027.60 1027.94 1028.25 1028.55 1028.84 1029.09 1029.31 1029.49 1029.61 1029.68 1029.71 1029.69 1029.64 1029.57 1029.48 1029.37 1029.24 1029.10 1028.94 1028.79 1028.65 1028.52 1028.42 1028.33 1028.23 1028.09 1027.89 1027.61 1027.24 1026.78 1026.26 1025.72 1025.21
1022.43 1022.85 1023.32 1023.84 1024.39 1024.95 1025.50 1026.02 1026.48 1026.89 1027.26 1027.59 1027.89 1028.17 1028.45 1028.70 1028.93 1029.12 1029.26 1029.36 1029.42 1029.44 1029.42 1029.38 1029.31 1029.21 1029.09 1028.96 1028.81 1028.67 1028.54 1028.44 1028.38 1028.34 1028.29 1028.22 1028.08 1027.84 1027.50 1027.06 1026.53 1025.96 1025.40
1021.64 1022.14 1022.68 1023.26 1023.87 1024.48 1025.06 1025.59 1026.05 1026.46 1026.81 1027.11 1027.40 1027.67 1027.92 1028.17 1028.40 1028.60 1028.76 1028.89 1028.98 1029.03 1029.06 1029.06 1029.03 1028.96 1028.88 1028.76 1028.64 1028.51 1028.40 1028.32 1028.28 1028.26 1028.26 1028.23 1028.13 1027.95 1027.65 1027.23 1026.71 1026.13 1025.53
1020.79 1021.37 1021.99 1022.63 1023.29 1023.92 1024.52 1025.05 1025.52 1025.91 1026.24 1026.53 1026.79 1027.05 1027.30 1027.55 1027.78 1027.99 1028.18 1028.33 1028.46 1028.55 1028.62 1028.67 1028.69 1028.68 1028.63 1028.55 1028.45 1028.33 1028.23 1028.14 1028.09 1028.08 1028.08 1028.07 1028.01 1027.86 1027.61 1027.23 1026.74 1026.17 1025.55
1019.87 1020.54 1021.22 1021.92 1022.61 1023.26 1023.87 1024.40 1024.86 1025.24 1025.56 1025.84 1026.10 1026.36 1026.62 1026.88 1027.13 1027.36 1027.58 1027.76 1027.92 1028.06 1028.17 1028.27 1028.34 1028.38 1028.37 1028.33 1028.24 1028.13 1028.01 1027.90 1027.82 1027.77 1027.75 1027.72 1027.67 1027.56 1027.35 1027.02 1026.58 1026.05 1025.45
1018.89 1019.63 1020.37 1021.10 1021.81 1022.48 1023.09 1023.62 1024.07 1024.45 1024.78 1025.07 1025.34 1025.62 1025.91 1026.19 1026.48 1026.75 1026.99 1027.21 1027.41 1027.58 1027.73 1027.87 1027.98 1028.06 1028.10 1028.08 1028.00 1027.89 1027.74 1027.58 1027.44 1027.33 1027.25 1027.19 1027.13 1027.03 1026.87 1026.60 1026.23 1025.76 1025.21
1017.86 1018.64 1019.42 1020.18 1020.91 1021.58 1022.19 1022.72 1023.17 1023.56 1023.90 1024.21 1024.51 1024.83 1025.15 1025.49 1025.82 1026.13 1026.42 1026.68 1026.91 1027.11 1027.30 1027.47 1027.61 1027.72 1027.78 1027.77 1027.70 1027.57 1027.38 1027.17 1026.96 1026.77 1026.62 1026.51 1026.42 1026.33 1026.19 1025.99 1025.70 1025.31 1024.84
1016.79 1017.60 1018.39 1019.16 1019.89 1020.57 1021.18 1021.71 1022.17 1022.56 1022.92 1023.26 1023.60 1023.95 1024.33 1024.72 1025.10 1025.47 1025.81 1026.11 1026.38 1026.61 1026.82 1027.00 1027.16 1027.29 1027.37 1027.38 1027.31 1027.16 1026.94 1026.68 1026.40 1026.13 1025.91 1025.73 1025.60 1025.50 1025.40 1025.25 1025.04 1024.74 1024.35
1015.71 1016.52 1017.30 1018.07 1018.79 1019.47 1020.08 1020.61 1021.08 1021.48 1021.85 1022.21 1022.58 1022.97 1023.39 1023.83 1024.28 1024.70 1025.09 1025.44 1025.74 1026.00 1026.23 1026.43 1026.61 1026.75 1026.84 1026.86 1026.80 1026.65 1026.42 1026.12 1025.79 1025.47 1025.17 1024.94 1024.76 1024.64 1024.54 1024.44 1024.29 1024.07 1023.77
1014.67 1015.44 1016.20 1016.94 1017.65 1018.32 1018.92 1019.46 1019.92 1020.33 1020.70 1021.06 1021.44 1021.85 1022.30 1022.77 1023.26 1023.74 1024.18 1024.58 1024.92 1025.21 1025.47 1025.69 1025.89 1026.05 1026.17 1026.22 1026.19 1026.06 1025.84 1025.54 1025.19 1024.83 1024.48 1024.19 1023.97 1023.81 1023.70 1023.61 1023.50 1023.34 1023.10
1013.70 1014.40 1015.11 1015.81 1016.50 1017.15 1017.75 1018.28 1018.73 1019.12 1019.47 1019.80 1020.16 1020.56 1021.01 1021.50 1022.02 1022.54 1023.03 1023.48 1023.87 1024.20 1024.49 1024.75 1024.98 1025.18 1025.34 1025.44 1025.47 1025.40 1025.22 1024.96 1024.62 1024.25 1023.88 1023.54 1023.27 1023.06 1022.91 1022.80 1022.69 1022.55 1022.35
1012.80 1013.42 1014.06 1014.71 1015.36 1015.99 1016.57 1017.08 1017.50 1017.86 1018.16 1018.45 1018.76 1019.12 1019.54 1020.02 1020.55 1021.09 1021.63 1022.12 1022.57 1022.96 1023.31 1023.62 1023.90 1024.16 1024.38 1024.55 1024.66 1024.67 1024.57 1024.38 1024.09 1023.74 1023.36 1022.99 1022.67 1022.40 1022.19 1022.02 1021.87 1021.72 1021.52
1011.99 1012.51 1013.06 1013.65 1014.25 1014.85 1015.40 1015.88 1016.27 1016.57 1016.81 1017.04 1017.27 1017.56 1017.93 1018.38 1018.90 1019.46 1020.02 1020.57 1021.08 1021.54 1021.95 1022.32 1022.67 1023.00 1023.31 1023.57 1023.77 1023.88 1023.89 1023.78 1023.57 1023.26 1022.90 1022.51 1022.14 1021.80 1021.51 1021.26 1021.05 1020.84 1020.62
1011.25 1011.64 1012.10 1012.61 1013.16 1013.71 1014.23 1014.67 1015.01 1015.26 1015.44 1015.58 1015.74 1015.96 1016.26 1016.66 1017.15 1017.71 1018.30 1018.89 1019.46 1019.99 1020.47 1020.92 1021.34 1021.75 1022.14 1022.50 1022.80 1023.03 1023.14 1023.14 1023.01 1022.76 1022.43 1022.04 1021.63 1021.22 1020.85 1020.51 1020.20 1019.92 1019.64
Thickness
5664 5660 5656 5654 5652 5650 5648 5647 5646 5646 5645 5645 5645 5644 5644 5644 5643 5643 5644 5644 5644 5644 5645 5646 5647 5647 5648 5649 5649 5649 5649 5650 5651 5653 5656 5659 5663 5668 5671 5673 5677 5681 5683
5666 5661 5656 5653 5650 5648 5646 5644 5643 5642 5641 5640 5640 5639 5639 5638 5638 5638 5637 5637 5637 5638 5638 5639 5639 5640 5640 5641 5641 5641 5640 5640 5642 5644 5647 5651 5654 5659 5662 5665 5668 5671 5674
5664 5660 5655 5651 5648 5645 5643 5641 5640 5638 5637 5636 5635 5634 5633 5633 5632 5632 5631 5631 5631 5630 5630 5631 5631 5631 5632 5633 5633 5632 5632 5631 5632 5635 5638 5641 5645 5649 5653 5656 5659 5662 5665
5662 5658 5654 5649 5646 5643 5640 5638 5636 5634 5633 5631 5630 5629 5628 5627 5626 5625 5625 5624 5623 5623 5623 5623 5623 5623 5624 5624 5624 5624 5623 5623 5623 5626 5629 5631 5634 5639 5643 5646 5649 5652 5656
5659 5656 5651 5647 5643 5640 5637 5635 5633 5631 5629 5627 5625 5624 5622 5621 5620 5619 5618 5617 5616 5615 5615 5615 5615 5615 5615 5616 5616 5615 5615 5614 5615 5617 5619 5620 5624 5628 5632 5636 5639 5642 5645
5657 5653 5649 5644 5641 5638 5635 5632 5629 5627 5624 5622 5620 5618 5617 5615 5613 5612 5611 5609 5608 5608 5607 5606 5606 5606 5606 5606 5606 5606 5606 5606 5607 5608 5609 5611 5614 5618 5622 5625 5627 5631 5634
5656 5652 5647 5642 5639 5635 5632 5629 5626 5623 5620 5618 5615 5613 5611 5609 5607 5605 5604 5602 5601 5600 5599 5598 5598 5597 5597 5597 5597 5596 5596 5596 5597 5598 5599 5601 5603 5607 5611 5614 5616 5619 5623
5654 5649 5645 5640 5637 5633 5630 5626 5623 5619 5616 5613 5610 5607 5605 5603 5601 5599 5597 5595 5593 5592 5591 5590 5589 5588 5588 5587 5587 5586 5585 5585 5588 5588 5588 5590 5591 5595 5599 5601 5604 5607 5610
5651 5647 5643 5640 5635 5631 5627 5623 5620 5616 5612 5609 5605 5602 5599 5597 5594 5592 5590 5588 5586 5584 5583 5581 5580 5579 5578 5577 5576 5575 5575 5575 5577 5577 5577 5578 5579 5582 5586 5588 5591 5594 5597
5649 5645 5642 5638 5634 5629 5625 5621 5617 5613 5609 5605 5600 5597 5594 5591 5588 5585 5583 5581 5579 5577 5575 5573 5571 5569 5567 5566 5565 5564 5564 5565 5565 5565 5564 5564 5566 5568 5571 5573 5576 5578 5582
5648 5645 5641 5637 5632 5628 5624 5619 5614 5609 5605 5600 5596 5591 5588 5585 5582 5579 5576 5573 5571 5569 5566 5564 5562 5559 5558 5556 5555 5553 5553 5553 5552 5551 5550 5549 5550 5553 5555 5557 5559 5561 5564
5652 5646 5641 5636 5631 5626 5621 5616 5612 5607 5602 5598 5594 5588 5584 5581 5577 5574 5569 5566 5563 5560 5558 5555 5552 5550 5549 5548 5545 5542 5541 5540 5539 5537 5536 5534 5535 5536 5538 5540 5542 5543 5546
5656 5648 5642 5636 5630 5625 5620 5615 5610 5605 5600 5595 5590 5585 5581 5577 5572 5568 5564 5560 5557 5553 5551 5547 5545 5542 5540 5536 5534 5531 5529 5527 5525 5523 5522 5519 5519 5520 5521 5523 5524 5525 5527
5658 5651 5643 5636 5630 5625 5620 5614 5609 5604 5599 5594 5588 5583 5578 5573 5569 5565 5560 5556 5552 5548 5544 5540 5537 5533 5529 5526 5523 5520 5517 5514 5512 5510 5508 5505 5504 5504 5505 5506 5506 5507 5508
5661 5654 5646 5637 5631 5625 5619 5614 5609 5604 5599 5593 5587 5581 5576 5571 5567 5561 5557 5551 5547 5542 5537 5533 5529 5524 5520 5516 5512 5509 5506 5503 5500 5498 5496 5493 5490 5489 5488 5488 5489 5489 5488
5665 5657 5648 5640 5633 5626 5620 5615 5609 5604 5598 5592 5586 5580 5574 5569 5564 5558 5552 5547 5541 5536 5530 5525 5520 5515 5511 5506 5502 5498 5495 5492 5489 5486 5484 5481 5478 5475 5473 5472 5471 5470 5468
5669 5661 5652 5643 5634 5627 5621 5615 5609 5603 5597 5591 5585 5579 5572 5566 5560 5554 5548 5542 5536 5530 5523 5517 5512 5506 5502 5497 5493 5489 5485 5482 5478 5475 5472 5469 5466 5462 5459 5456 5453 5451 5448
5671 5663 5655 5644 5636 5628 5621 5615 5609 5603 5597 5591 5584 5578 5571 5564 5557 5550 5544 5538 5531 5523 5517 5511 5505 5500 5494 5489 5485 5481 5476 5472 5468 5465 5461 5457 5453 5449 5445 5441 5436 5432 5427
5674 5665 5656 5646 5638 5630 5621 5614 5608 5602 5595 5590 5583 5576 5569 5561 5554 5547 5540 5534 5525 5518 5511 5504 5498 5492 5487 5481 5476 5471 5467 5463 5459 5455 5450 5445 5440 5435 5430 5425 5420 5414 5407
5674 5666 5657 5647 5638 5629 5620 5612 5606 5600 5594 5588 5582 5575 5567 5559 5551 5543 5536 5528 5520 5512 5505 5498 5491 5484 5477 5471 5466 5462 5459 5455 5449 5444 5439 5433 5427 5421 5415 5409 5403 5397 5389
5673 5665 5658 5649 5639 5630 5622 5614 5608 5602 5594 5587 5580 5574 5565 5557 5549 5540 5532 5524 5515 5508 5501 5493 5485 5477 5469 5461 5456 5456 5454 5449 5442 5434 5426 5420 5413 5406 5399 5392 5385 5378 5371
5676 5667 5659 5651 5642 5633 5625 5617 5609 5601 5595 5587 5578 5571 5563 5555 5546 5538 5529 5521 5512 5503 5495 5486 5477 5469 5462 5453 5447 5445 5447 5447 5439 5425 5415 5407 5399 5391 5384 5376 5369 5360 5352
5676 5669 5661 5653 5643 5634 5623 5612 5604 5596 5592 5585 5578 5571 5563 5554 5545 5535 5526 5517 5508 5499 5491 5481 5471 5462 5455 5446 5436 5430 5429 5433 5428 5419 5407 5396 5386 5378 5369 5361 5352 5344 5334
5676 5666 5658 5650 5641 5632 5621 5613 5607 5601 5598 5594 5583 5573 5562 5552 5543 5533 5523 5513 5504 5494 5485 5476 5465 5456 5446 5439 5430 5420 5413 5409 5401 5404 5399 5387 5376 5366 5357 5347 5338 5328 5319
5671 5663 5654 5646 5639 5630 5621 5614 5606 5603 5600 5592 5582 5573 5562 5552 5541 5531 5520 5510 5500 5490 5480 5470 5460 5449 5440 5431 5423 5414 5404 5395 5386 5379 5382 5378 5368 5357 5345 5334 5324 5315 5306
5667 5659 5651 5644 5638 5629 5620 5612 5606 5603 5597 5589 5582 5573 5561 5551 5540 5529 5517 5506 5496 5486 5475 5464 5453 5443 5433 5423 5414 5405 5396 5387 5380 5372 5367 5364 5358 5349 5335 5323 5313 5304 5295